Tiempo cada hora Santa Cruz de Tenerife

Hoy, 20 Octubre, Martes

Tiempo Temperatura Precipitaciones Viento Presión Humedad
00:00 +28°C° 0 mm 5 mps 752 mmHg 51%
01:00 +28°C° 0 mm 5 mps 752 mmHg 47%
02:00 +28°C° 0 mm 6 mps 751 mmHg 42%
03:00 +28°C° 0 mm 6 mps 751 mmHg 45%
04:00 +28°C° 0 mm 6 mps 751 mmHg 48%
05:00 +27°C° 0 mm 6 mps 751 mmHg 51%
06:00 +28°C° 0 mm 7 mps 751 mmHg 50%
07:00 +28°C° 0 mm 7 mps 751 mmHg 50%
08:00 +29°C° 0 mm 8 mps 752 mmHg 50%
09:00 +31°C° 0 mm 8 mps 752 mmHg 48%
10:00 +32°C° 0 mm 9 mps 752 mmHg 46%
11:00 +33°C° 0 mm 10 mps 752 mmHg 44%
12:00 +33°C° 0.3 mm 9 mps 752 mmHg 48%
13:00 +32°C° 0.3 mm 9 mps 752 mmHg 52%
14:00 +32°C° 0.3 mm 8 mps 751 mmHg 55%
15:00 +31°C° 0.1 mm 8 mps 751 mmHg 62%
16:00 +28°C° 0.1 mm 7 mps 751 mmHg 68%
17:00 +27°C° 0.1 mm 7 mps 751 mmHg 74%
18:00 +26°C° 0 mm 7 mps 752 mmHg 76%
19:00 +26°C° 0 mm 6 mps 752 mmHg 79%
20:00 +24°C° 0 mm 6 mps 753 mmHg 81%
21:00 +23°C° 0 mm 5 mps 753 mmHg 84%
22:00 +23°C° 0 mm 5 mps 753 mmHg 86%
23:00 +22°C° 0 mm 5 mps 753 mmHg 88%

Mañana, 21 Octubre, Miércoles

Tiempo Temperatura Precipitaciones Viento Presión Humedad
00:00 +22°C° 0 mm 5 mps 752 mmHg 87%
01:00 +21°C° 0 mm 5 mps 752 mmHg 86%
02:00 +21°C° 0 mm 5 mps 751 mmHg 85%
03:00 +21°C° 0 mm 5 mps 751 mmHg 84%
04:00 +21°C° 0 mm 5 mps 751 mmHg 82%
05:00 +21°C° 0 mm 5 mps 752 mmHg 81%
06:00 +21°C° 0 mm 4 mps 752 mmHg 78%
07:00 +22°C° 0 mm 4 mps 752 mmHg 74%
08:00 +22°C° 0 mm 3 mps 752 mmHg 71%
09:00 +24°C° 0 mm 3 mps 752 mmHg 67%
10:00 +25°C° 0 mm 3 mps 753 mmHg 64%
11:00 +25°C° 0 mm 3 mps 753 mmHg 61%
12:00 +25°C° 0.1 mm 3 mps 752 mmHg 66%
13:00 +24°C° 0.1 mm 3 mps 752 mmHg 72%
14:00 +23°C° 0.1 mm 4 mps 752 mmHg 77%
15:00 +22°C° 0.3 mm 4 mps 752 mmHg 79%
16:00 +22°C° 0.3 mm 4 mps 752 mmHg 81%
17:00 +22°C° 0.3 mm 4 mps 752 mmHg 83%
18:00 +22°C° 0.6 mm 3 mps 752 mmHg 83%
19:00 +21°C° 0.6 mm 3 mps 753 mmHg 83%
20:00 +21°C° 0.6 mm 2 mps 753 mmHg 83%
21:00 +21°C° 0.2 mm 3 mps 753 mmHg 82%
22:00 +21°C° 0.2 mm 3 mps 753 mmHg 80%
23:00 +21°C° 0.2 mm 3 mps 753 mmHg 78%

Pasado mañana, 22 Octubre, Jueves

Tiempo Temperatura Precipitaciones Viento Presión Humedad
00:00 +20°C° 0 mm 3 mps 753 mmHg 79%
01:00 +20°C° 0 mm 4 mps 753 mmHg 81%
02:00 +20°C° 0 mm 4 mps 753 mmHg 82%
03:00 +19°C° 0 mm 4 mps 753 mmHg 81%
04:00 +19°C° 0 mm 4 mps 753 mmHg 80%
05:00 +19°C° 0 mm 5 mps 753 mmHg 79%
06:00 +20°C° 0.1 mm 4 mps 753 mmHg 75%
07:00 +20°C° 0.1 mm 4 mps 754 mmHg 70%
08:00 +21°C° 0.1 mm 4 mps 754 mmHg 66%
09:00 +21°C° 0.1 mm 4 mps 754 mmHg 67%
10:00 +22°C° 0.1 mm 4 mps 754 mmHg 69%
11:00 +22°C° 0.1 mm 4 mps 755 mmHg 70%
12:00 +22°C° 0 mm 4 mps 754 mmHg 73%
13:00 +21°C° 0 mm 4 mps 754 mmHg 77%
14:00 +21°C° 0 mm 4 mps 754 mmHg 80%
15:00 +21°C° 0 mm 4 mps 754 mmHg 79%
16:00 +21°C° 0 mm 5 mps 754 mmHg 78%
17:00 +21°C° 0 mm 5 mps 755 mmHg 77%
18:00 +21°C° 0 mm 5 mps 755 mmHg 78%
19:00 +20°C° 0 mm 5 mps 756 mmHg 78%
20:00 +20°C° 0 mm 5 mps 756 mmHg 79%
21:00 +20°C° 0 mm 4 mps 756 mmHg 80%
22:00 +20°C° 0 mm 4 mps 757 mmHg 80%
23:00 +20°C° 0 mm 4 mps 757 mmHg 81%

23 Octubre, Viernes

Tiempo Temperatura Precipitaciones Viento Presión Humedad
00:00 +20°C° 0 mm 4 mps 757 mmHg 81%
01:00 +19°C° 0 mm 4 mps 756 mmHg 81%
02:00 +19°C° 0 mm 4 mps 756 mmHg 82%
03:00 +19°C° 0 mm 5 mps 756 mmHg 82%
04:00 +19°C° 0 mm 5 mps 756 mmHg 83%
05:00 +19°C° 0 mm 6 mps 756 mmHg 83%
06:00 +19°C° 0.2 mm 6 mps 757 mmHg 86%
07:00 +18°C° 0.2 mm 7 mps 757 mmHg 89%
08:00 +20°C° 0.2 mm 8 mps 758 mmHg 92%
09:00 +20°C° 0.1 mm 8 mps 758 mmHg 88%
10:00 +21°C° 0.1 mm 7 mps 758 mmHg 83%
11:00 +21°C° 0.1 mm 7 mps 758 mmHg 79%
12:00 +21°C° 0 mm 7 mps 758 mmHg 78%
13:00 +21°C° 0 mm 7 mps 757 mmHg 77%
14:00 +22°C° 0 mm 7 mps 757 mmHg 76%
15:00 +21°C° 0 mm 7 mps 757 mmHg 79%
16:00 +21°C° 0 mm 7 mps 757 mmHg 81%
17:00 +20°C° 0 mm 7 mps 757 mmHg 84%
18:00 +20°C° 0 mm 7 mps 758 mmHg 85%
19:00 +20°C° 0 mm 7 mps 758 mmHg 86%
20:00 +20°C° 0 mm 7 mps 758 mmHg 87%
21:00 +20°C° 0 mm 7 mps 758 mmHg 85%
22:00 +19°C° 0 mm 6 mps 758 mmHg 84%
23:00 +19°C° 0 mm 6 mps 758 mmHg 82%

24 Octubre, Sábado

Tiempo Temperatura Precipitaciones Viento Presión Humedad
00:00 +19°C° 0 mm 6 mps 758 mmHg 82%
01:00 +18°C° 0 mm 7 mps 757 mmHg 81%
02:00 +18°C° 0 mm 7 mps 757 mmHg 81%
03:00 +18°C° 0 mm 7 mps 757 mmHg 83%
04:00 +18°C° 0 mm 7 mps 757 mmHg 84%
05:00 +18°C° 0 mm 7 mps 757 mmHg 86%
06:00 +18°C° 0 mm 7 mps 757 mmHg 83%
07:00 +20°C° 0 mm 7 mps 758 mmHg 80%
08:00 +21°C° 0 mm 7 mps 758 mmHg 77%
09:00 +22°C° 0 mm 7 mps 758 mmHg 69%
10:00 +23°C° 0 mm 7 mps 758 mmHg 61%
11:00 +26°C° 0 mm 7 mps 758 mmHg 53%
12:00 +26°C° 0 mm 7 mps 758 mmHg 56%
13:00 +26°C° 0 mm 7 mps 757 mmHg 58%
14:00 +26°C° 0 mm 7 mps 757 mmHg 61%
15:00 +26°C° 0 mm 7 mps 757 mmHg 64%
16:00 +24°C° 0 mm 7 mps 757 mmHg 67%
17:00 +24°C° 0 mm 6 mps 757 mmHg 71%
18:00 +23°C° 0 mm 6 mps 757 mmHg 75%
19:00 +23°C° 0 mm 6 mps 758 mmHg 79%
20:00 +22°C° 0 mm 6 mps 758 mmHg 83%
21:00 +22°C° 0 mm 7 mps 758 mmHg 83%
22:00 +22°C° 0 mm 7 mps 758 mmHg 83%
23:00 +22°C° 0 mm 7 mps 758 mmHg 83%

25 Octubre, Domingo

Tiempo Temperatura Precipitaciones Viento Presión Humedad
00:00 +22°C° 0 mm 8 mps 758 mmHg 85%
01:00 +22°C° 0 mm 8 mps 757 mmHg 87%
02:00 +22°C° 0 mm 8 mps 757 mmHg 89%
03:00 +22°C° 0 mm 8 mps 757 mmHg 87%
04:00 +22°C° 0 mm 8 mps 757 mmHg 85%
05:00 +22°C° 0 mm 8 mps 757 mmHg 83%
06:00 +22°C° 0 mm 8 mps 757 mmHg 78%
07:00 +23°C° 0 mm 8 mps 758 mmHg 72%
08:00 +24°C° 0 mm 8 mps 758 mmHg 67%
09:00 +24°C° 0 mm 7 mps 758 mmHg 68%
10:00 +24°C° 0 mm 7 mps 758 mmHg 69%
11:00 +24°C° 0 mm 7 mps 758 mmHg 70%
12:00 +24°C° 0 mm 7 mps 758 mmHg 70%
13:00 +26°C° 0 mm 7 mps 758 mmHg 70%
14:00 +26°C° 0 mm 7 mps 758 mmHg 69%
15:00 +24°C° 0 mm 8 mps 758 mmHg 73%
16:00 +24°C° 0 mm 8 mps 758 mmHg 76%
17:00 +23°C° 0 mm 8 mps 758 mmHg 79%
18:00 +23°C° 0 mm 8 mps 758 mmHg 80%
19:00 +23°C° 0 mm 8 mps 758 mmHg 81%
20:00 +22°C° 0 mm 7 mps 758 mmHg 81%
21:00 +22°C° 0 mm 8 mps 758 mmHg 82%
22:00 +22°C° 0 mm 8 mps 758 mmHg 82%
23:00 +21°C° 0 mm 8 mps 758 mmHg 83%

26 Octubre, Lunes

Tiempo Temperatura Precipitaciones Viento Presión Humedad
00:00 +22°C° 0 mm 9 mps 758 mmHg 79%
01:00 +22°C° 0 mm 9 mps 758 mmHg 75%
02:00 +22°C° 0 mm 10 mps 757 mmHg 72%
03:00 +22°C° 0 mm 9 mps 757 mmHg 76%
04:00 +22°C° 0 mm 9 mps 757 mmHg 80%
05:00 +21°C° 0 mm 9 mps 757 mmHg 84%
06:00 +22°C° 0 mm 9 mps 758 mmHg 81%
07:00 +22°C° 0 mm 9 mps 758 mmHg 78%
08:00 +23°C° 0 mm 9 mps 758 mmHg 75%
09:00 +24°C° 0 mm 8 mps 758 mmHg 67%
10:00 +27°C° 0 mm 8 mps 758 mmHg 60%
11:00 +28°C° 0 mm 8 mps 758 mmHg 52%
12:00 +28°C° 0 mm 8 mps 758 mmHg 52%
13:00 +29°C° 0 mm 8 mps 757 mmHg 51%
14:00 +31°C° 0 mm 8 mps 757 mmHg 51%
15:00 +29°C° 0 mm 8 mps 757 mmHg 51%
16:00 +29°C° 0 mm 8 mps 757 mmHg 51%
17:00 +28°C° 0 mm 8 mps 757 mmHg 51%
18:00 +28°C° 0 mm 8 mps 757 mmHg 51%
19:00 +27°C° 0 mm 8 mps 757 mmHg 51%
20:00 +27°C° 0 mm 8 mps 758 mmHg 51%
21:00 +27°C° 0 mm 8 mps 757 mmHg 51%
22:00 +27°C° 0 mm 8 mps 757 mmHg 51%
23:00 +27°C° 0 mm 8 mps 757 mmHg 50%
Mostrar más

Necesitamos Su Consentimiento

Meteoprog y nuestros Proveedores de Servicios pueden almacenar y acceder a sus datos personales como cookies, identificadores de dispositivo u otras tecnologías similares de su dispositivo y procesar dichos datos para personalizar contenido y anuncios, además de ofrecer funciones de redes sociales y analizar el tráfico.

  • Almacenar y/o acceder a información en su dispositivo

    Se puede almacenar o acceder a cookies, identificadores de dispositivo u otra información de su dispositivo para los fines anteriormente indicados.

  • Anuncios y contenido personalizados, medición de anuncios y contenido, percepciones del público, y desarrollo de productos

    Los anuncios y el contenido pueden personalizarse en base a su perfil. Se pueden añadir más datos para personalizar mejor los anuncios y contenidos. Se puede medir el rendimiento de los anuncios y contenidos. Se puede obtener la percepción sobre el público que ha visto los anuncios y contenidos. Dichos datos pueden usarse para desarrollar o mejorar la experiencia del usuario, sistemas y software.

Al hacer clic en ‘Estoy De Acuerdo’ usted permitirá el uso de las cookies, identificadores de dispositivo, balizas web u otras tecnologías similares indicadas. Su configuración puede cambiarse desde el navegador de su dispositivo.

Para ciertos fines, los intereses legítimos pueden ser considerados por encima del consentimiento. Puede leer más sobre ello en nuestra Política de Privacidad y Cookies.